Pago Pago International (NSTU)

Aerodrome — Elev 32
American Samoa
S014.19.51.600 W170.42.37.800
Loading chart...

Current Weather

NSTU 251750Z VRB02KT 10SM -SHRA SCT016TCU BKN040 OVC100 26/24 A2986 RMK SHRAB20 TCU NE-E-S SLP112 60066 8/42/ T02630244 10275 20251 52008

Published 19 minutes ago

Airport Activity

Loading chart...
Loading chart...

Standard ATC Positions

CallsignRadio Name / Freq / Voice Room / TypeFrequencyVoice RoomType
NZZO_FSS Auckland Radio
128.900
nzzo_fss
128.900nzzo_fss
NSFA_APP Faleolo Approach
126.900
nsfa_app
126.900nsfa_app
NSTU_TWR Pago Pago Tower
118.600
nstu_twr
118.600nstu_twr
UNICOM NZZO UNICOM
122.800
unicom_nzzo
122.800unicom_nzzo

Event ATC Positions

This airport has additional control positions that are designated for use only during major events.
These non-standard positions must not be staffed unless specifically activated by the VATNZ Airspace Director as part of an official VATNZ event.
At all other times, controllers should use the designated Standard ATC Positions.

CallsignRadio Name / Freq / Voice Room / TypeFrequencyVoice RoomType
NSFA_CTR Faleolo Control
123.800
nsfa_ctr
123.800nsfa_ctr